Fort Stockton, TX

6:59 PM CST on December 08, 2016 (GMT -0600)
Fort Stockton-Pecos County

Weather History for KFST - July, 2013

Change the Weather History Date:

Monday, July 8, 2013

  Actual Average Record
Temperature  
Mean Temperature 82 °F -  
Max Temperature 91 °F 93 °F 105 °F (2004)
Min Temperature 72 °F 68 °F 66 °F (1997)
Cooling Degree Days 16    
Growing Degree Days 32 (Base 50)    
Moisture  
Dew Point 61 °F    
Average Humidity 51    
Maximum Humidity 76    
Minimum Humidity 34    
Precipitation  
Precipitation 0.00 in - - ()
Sea Level Pressure  
Sea Level Pressure 29.93 in    
Wind  
Wind Speed 13 mph (SE)    
Max Wind Speed 20 mph    
Max Gust Speed 31 mph    
Visibility 10 miles    
Events      
Averages and records for this station are not official NWS values.
T = Trace of Precipitation, MM = Missing Value Source: NWS Daily Summary

Daily Weather History Graph

Daily Weather History Graph

Search for Another Location

Airport or City:

Trip Planner

Search our weather history database for the weather conditions in past years. The results will help you decide how hot, cold, wet, or windy it might be!

Date:

Astronomy

Jul. 08, 2013 Rise Set
Actual Time 6:55 AM CDT 8:58 PM CDT
Civil Twilight 6:27 AM CDT 9:25 PM CDT
Nautical Twilight 5:54 AM CDT 9:59 PM CDT
Astronomical Twilight 5:18 AM CDT 10:34 PM CDT
Moon 7:20 AM CDT (7/8) 9:09 PM CDT (7/8)
Length of Visible Light 14h 57m
Length of Day
14h 02m
New Moon, 0% of the Moon is Illuminated
Jul 8
New Moon
Jul 15
First Quarter
Jul 22
Full
Jul 29
Last Quarter
Aug 6
New

Hourly Weather History & Observations

Time (CDT) Temp. Heat Index Dew Point Humidity Pressure Visibility Wind Dir Wind Speed Gust Speed Precip Events Conditions
12:53 AM 79.0 °F - 57.0 °F 47% 29.88 in 10.0 mi SE 10.4 mph - N/A   Clear
1:53 AM 78.1 °F - 59.0 °F 52% 29.88 in 10.0 mi SE 8.1 mph - N/A   Clear
2:53 AM 77.0 °F - 60.1 °F 56% 29.87 in 10.0 mi SE 10.4 mph - N/A   Clear
3:53 AM 75.0 °F - 61.0 °F 62% 29.88 in 10.0 mi SE 9.2 mph - N/A   Clear
4:53 AM 75.0 °F - 62.1 °F 64% 29.88 in 10.0 mi SE 9.2 mph - N/A   Clear
5:53 AM 73.0 °F - 63.0 °F 71% 29.91 in 10.0 mi SE 9.2 mph - N/A   Clear
6:53 AM 72.0 °F - 64.0 °F 76% 29.92 in 10.0 mi SE 10.4 mph - N/A   Clear
7:53 AM 73.0 °F - 64.0 °F 73% 29.95 in 10.0 mi SE 11.5 mph - N/A   Clear
8:53 AM 75.0 °F - 64.9 °F 71% 29.97 in 10.0 mi SE 13.8 mph 20.7 mph N/A   Clear
9:53 AM 78.1 °F - 64.0 °F 62% 29.98 in 10.0 mi SSE 16.1 mph 21.9 mph N/A   Clear
10:53 AM 82.9 °F 83.7 °F 62.1 °F 49% 29.98 in 10.0 mi SSE 15.0 mph - N/A   Clear
11:53 AM 84.0 °F 84.5 °F 62.1 °F 47% 29.99 in 10.0 mi SSE 16.1 mph 26.5 mph N/A   Clear
12:53 PM 88.0 °F 87.6 °F 60.1 °F 39% 29.97 in 10.0 mi SE 16.1 mph 24.2 mph N/A   Clear
1:53 PM 90.0 °F 89.7 °F 60.1 °F 37% 29.95 in 10.0 mi East 12.7 mph 19.6 mph N/A   Clear
2:53 PM 91.0 °F 90.2 °F 59.0 °F 34% 29.93 in 10.0 mi ESE 17.3 mph 25.3 mph N/A   Partly Cloudy
3:53 PM 90.0 °F 89.1 °F 59.0 °F 35% 29.93 in 10.0 mi SE 16.1 mph 25.3 mph N/A   Clear
4:53 PM 90.0 °F 88.8 °F 57.9 °F 34% 29.91 in 10.0 mi SE 19.6 mph 24.2 mph N/A   Clear
5:53 PM 90.0 °F 88.8 °F 57.9 °F 34% 29.91 in 10.0 mi SE 18.4 mph 23.0 mph N/A   Partly Cloudy
6:53 PM 88.0 °F 86.9 °F 57.9 °F 36% 29.90 in 10.0 mi SE 16.1 mph 26.5 mph N/A   Clear
7:53 PM 84.9 °F 84.4 °F 59.0 °F 41% 29.90 in 10.0 mi SE 18.4 mph 27.6 mph N/A   Clear
8:53 PM 82.9 °F 82.8 °F 59.0 °F 44% 29.91 in 10.0 mi SE 18.4 mph 26.5 mph N/A   Clear
9:53 PM 81.0 °F 81.7 °F 61.0 °F 50% 29.93 in 10.0 mi SE 15.0 mph 26.5 mph N/A   Clear
10:53 PM 80.1 °F 81.1 °F 61.0 °F 52% 29.96 in 10.0 mi SE 17.3 mph 31.1 mph N/A   Clear
11:53 PM 78.1 °F - 59.0 °F 52% 29.99 in 10.0 mi SE 16.1 mph 27.6 mph N/A   Clear